Regional Weather Roundup
Issued by NWS

Home | Current Version | Previous Version | Graphics & Text | Print | Product List | Glossary On
Versions: 1 2 3 4 5 6 7 8 9 10 11 12 13 14 15 16 17 18 19 20 21 22 23 24 25 26 27 28 29
000
ASUS45 KGTF 201810
RWRMT
MONTANA HOURLY WEATHER ROUNDUP
NATIONAL WEATHER SERVICE GREAT FALLS MT
1200 PM MDT MON APR 20 2015

NOTE: "FAIR" INDICATES FEW OR NO CLOUDS BELOW 12000 FEET WITH NO
SIGNIFICANT WEATHER AND/OR OBSTRUCTIONS TO VISIBILITY.

MTZ001>007-043-201900-
WEST OF THE DIVIDE

CITY           SKY/WX    TMP DP  RH WIND       PRES   REMARKS
KALISPELL      CLEAR     57  31  37 S5        29.96F
MISSOULA       SUNNY     53  32  44 CALM      29.98F
BUTTE          SUNNY     52  22  30 VRB3      29.98F
DEER LODGE       N/A     54  27  35 N5        30.01F
EUREKA           N/A     54  30  40 CALM      29.98F
HAMILTON         N/A     59  32  36 NW2       29.96F
LIBBY            N/A     57  32  38 NW3       29.95F
$$

MTZ008-052>055-201900-
SOUTHWEST MONTANA

CITY           SKY/WX    TMP DP  RH WIND       PRES   REMARKS
BOZEMAN        SUNNY     52  26  36 CALM      29.99F
DILLON         SUNNY     52  23  32 CALM      29.98F
$$

MTZ009-010-012-014-046-048-049-054-201900-
EAST SLOPES AND CENTRAL MONTANA

CITY           SKY/WX    TMP DP  RH WIND       PRES   REMARKS
CUT BANK       SUNNY     57  23  26 MISG      29.93F
GREAT FALLS    SUNNY     56  27  32 W8        29.94S
MALMSTROM AFB  SUNNY     55  28  35 W6        29.94F
HELENA         SUNNY     54  29  38 E7        29.97F
$$

MTZ011-013-016-021-045-047-050-051-201900-
NORTH CENTRAL MONTANA

CITY           SKY/WX    TMP DP  RH WIND       PRES   REMARKS
HAVRE          SUNNY     57  22  25 W7        29.94F
LEWISTOWN      SUNNY     52  19  27 NW7       29.96F
CHINOOK          N/A     55  19  24 W3        29.95F
FORT BENTON      N/A     57  23  26 SE5       29.95F
$$

MTZ017>020-022>042-056>058-061-062-201900-
EASTERN PLAINS

CITY           SKY/WX    TMP DP  RH WIND       PRES   REMARKS
BAKER          CLOUDY    47  22  37 NW17G30   29.91F
BILLINGS       MOSUNNY   54  17  23 NW16G22   29.97F
GLASGOW        PTSUNNY   53  20  27 NW13      29.93F
JORDAN           N/A     55  17  22 NW22G30   29.94F
LIVINGSTON     SUNNY     56  23  27 S12G20    29.95F
MILES CITY     MOSUNNY   55  18  23 N16G24    29.93F
SIDNEY         MOSUNNY   52  16  24 NW14G25   29.91F
WOLF POINT     CLOUDY    53  20  27 N13       29.92F
FORSYTH          N/A     54  18  24 NW14G22   29.94F
PLENTYWOOD       N/A     48  14  25 N18G24    29.88F
POPLAR           N/A     50  18  27 NW21G26   29.91F
$$

REGIONAL REPORTS...DAKOTAS

CITY           SKY/WX    TMP DP  RH WIND       PRES   REMARKS
WILLISTON      SUNNY     52  13  21 N21G32    29.89F
MINOT          SUNNY     47  16  29 NW29G38   29.77F
DICKINSON      SUNNY     49  13  23 NW29G38   29.84F
BEACH          FAIR      48  14  25 NW17G31   29.90F
CROSBY         FAIR      46   1  15 N22G30    29.88F
WATFORD CITY   FAIR      48  10  21 N24G32    29.86F
BISMARCK       SUNNY     50   7  17 NW26G38   29.78F
GRAND FORKS    LGT SNOW  36  30  79 NW26G35   29.60S WCI  24
FARGO          LGT SNOW  37  32  82 NW20G30   29.61S WCI  27
BUFFALO SD       N/A     46  20  35 NW26G36   29.82F
RAPID CITY     CLOUDY    50  21  32 NW24G31   29.91S
$$

REGIONAL REPORTS...WYOMING/IDAHO/WASHINGTON

CITY           SKY/WX    TMP DP  RH WIND       PRES   REMARKS
GILLETTE       PTSUNNY   47  19  33 NW22G32   29.93F
SHERIDAN       SUNNY     52  25  35 N21G31    29.94F
BUFFALO WY       N/A     50  20  30 N23       29.94F
CODY           SUNNY     48  25  40 N8        29.98F
YELLOWSTONE LA   N/A     38  18  44 VRB3      30.04S
IDAHO FALLS    MOSUNNY   57  23  26 CALM      29.99F
SALMON         SUNNY     54  27  35 NW3       29.97F
BOISE          SUNNY     64  34  32 S8        29.96S
SPOKANE        PTSUNNY   60  37  42 CALM      29.94F
$$

REGIONAL REPORTS...ALBERTA

CITY           SKY/WX    TMP DP  RH WIND       PRES   REMARKS
EDMONTON       SUNNY     61  27  27 NW7       29.85F
CALGARY        MOSUNNY   61  21  21 N7        29.91F
LETHBRIDGE     SUNNY     57  27  30 NW6       29.92F
MEDICINE HAT   MOSUNNY   59  25  27 SW10      29.90F
$$

REGIONAL REPORTS...SASKATCHEWAN

CITY           SKY/WX    TMP DP  RH WIND       PRES   REMARKS
SWIFT CURRENT  MOSUNNY   52  14  22 NW16      29.89F
REGINA         MOSUNNY   46  16  29 NW9G20    29.92F
SASKATOON      PTSUNNY   52  19  28 CALM      29.90F
$$



USA.gov is the U.S. government's official web portal to all federal, state and local government web resources and services.